Regional Weather Roundup
Issued by NWS

Home | Current Version | Previous Version | Graphics & Text | Print | Product List | Glossary On
Versions: 1 2 3 4 5 6 7 8 9 10 11 12 13 14 15 16 17 18 19 20 21 22 23 24 25 26 27 28 29 30 31 32 33 34 35 36 37 38 39 40 41 42 43 44 45 46 47 48 49 50
996
ASUS43 KDMX 211801
RWRIA

WEATHER ROUNDUP FOR IOWA
NATIONAL WEATHER SERVICE DES MOINES IA
100 PM CDT SAT APR 21 2018

NOTE: "FAIR" INDICATES FEW OR NO CLOUDS BELOW 12,000 FEET WITH NO
SIGNIFICANT WEATHER AND/OR OBSTRUCTIONS TO VISIBILITY.

* - THESE STATIONS ARE NOT NWS STATIONS...THUS NOT UNDER NWS
QUALITY CONTROL.  THEY ALSO DO NOT REPORT WEATHER SUCH
AS PRECIPITATION OR FOG.

IAZ001>003-012>014-020>022-031>034-043>046-211900-
   NORTHWEST IOWA

CITY           SKY/WX    TMP DP  RH WIND       PRES   REMARKS
CARROLL *      CLOUDY    54  30  40 SE12      30.32S
CHEROKEE *     CLOUDY    46  36  67 E9        30.33F
DENISON *      CLOUDY    54  27  35 E10G16    30.32F
LE MARS *      CLOUDY    50  34  53 E9        30.32F
ORANGE CITY *  MOSUNNY   50  36  57 E7        30.33F
SHELDON *      CLOUDY    52  37  58 E12       30.33S
SIOUX CITY     CLOUDY    49  33  54 E7        30.31F
6HR MIN TEMP:  42; 6HR MAX TEMP:  49;

SPENCER        CLOUDY    45  34  65 E8        30.36F
6HR MIN TEMP:  37; 6HR MAX TEMP:  45;

STORM LAKE *   CLOUDY    45  37  76 NE13      30.33F
$$

IAZ055>058-069>071-079>083-090>094-211900-
   SOUTHWEST IOWA

CITY           SKY/WX    TMP DP  RH WIND       PRES   REMARKS
ATLANTIC *     CLOUDY    55  25  30 E10       30.29F
AUDUBON *      CLOUDY    55  23  28 E10       30.31F
CLARINDA *     CLOUDY    55  27  33 SE10      30.30S
COUNCIL BLFS * CLOUDY    52  30  43 E9        30.28F
CRESTON *      CLOUDY    57  23  26 SE18      30.29F
HARLAN  *      CLOUDY    55  27  33 E14       30.33F
LAMONI         CLOUDY    55  29  36 E7        30.29F
6HR MIN TEMP:  44; 6HR MAX TEMP:  55;

RED OAK *      CLOUDY    57  28  33 E12       30.28F
SHENANDOAH *   CLOUDY    55  28  35 S13       30.29S
$$

IAZ047>049-059>061-072>074-084-211900-
   CENTRAL IOWA

CITY           SKY/WX    TMP DP  RH WIND       PRES   REMARKS
AMES           CLOUDY    56  28  34 SE13      30.34S
6HR MIN TEMP:  42; 6HR MAX TEMP:  56;

ANKENY *       CLOUDY    55  27  33 SE10      30.35S
BOONE *        CLOUDY    55  27  33 SE18      30.33S
CHARITON *     CLOUDY    57  27  30 SE15      30.30F
DES MOINES     CLOUDY    55  26  32 E9        30.32F
6HR MIN TEMP:  46; 6HR MAX TEMP:  55;

GRINNELL*      MOSUNNY   56  23  27 SE14      30.36S
KNOXVILLE *    MOSUNNY   57  27  30 E8        30.31F
MARSHALLTOWN   CLOUDY    57  28  33 SE9       30.34F
6HR MIN TEMP:  42; 6HR MAX TEMP:  57;

NEWTON *       CLOUDY    55  25  30 SE14      30.34F
PELLA *        CLOUDY    56  26  30 SE7       30.34F
$$

IAZ004>006-015-016-023>025-035-036-211900-
   NORTH CENTRAL IOWA

CITY           SKY/WX    TMP DP  RH WIND       PRES   REMARKS
ALGONA *       CLOUDY    46  36  66 NE7       30.37S
CLARION *      CLOUDY    55  34  44 E14       30.35F
ESTHERVILLE    CLOUDY    42  31  64 NE3       30.36F
6HR MIN TEMP:  34; 6HR MAX TEMP:  42;

FORT DODGE *   CLOUDY    56  36  47 E10       30.34F
MASON CITY     CLOUDY    48  37  65 NE9       30.38F
6HR MIN TEMP:  37; 6HR MAX TEMP:  48;

FOREST CITY *  CLOUDY    50  32  50 E6        30.37F
WEBSTER CITY * MOSUNNY   59  32  36 SE14      30.32S
IOWA FALLS *   FAIR      59  32  36 E13       30.36S
$$

IAZ007>011-017>019-026>030-037>042-050>054-066-211900-
   NORTHEAST IOWA

CITY           SKY/WX    TMP DP  RH WIND       PRES   REMARKS
CEDAR RAPIDS   FAIR      58  28  32 E10       30.36F
6HR MIN TEMP:  44; 6HR MAX TEMP:  58;

CHARLES CITY * FAIR      55  36  47 VRB7G13   30.38F
CLINTON *      FAIR      52  28  39 E15       30.40F
DECORAH *      CLOUDY    48  37  66 SE7       30.40S
DUBUQUE        PTSUNNY   52  34  50 E10       30.41F
6HR MIN TEMP:  43; 6HR MAX TEMP:  52; 6HR PCP: TRACE;

MONTICELLO *   FAIR      57  28  33 E15       30.38F
OELWEIN *      FAIR      54  32  43 E10G17    30.39F
WATERLOO       PTSUNNY   54  29  38 E14       30.37F
6HR MIN TEMP:  44; 6HR MAX TEMP:  55;

$$

IAZ064-065-067-068-078-211900-
   EAST CENTRAL IOWA

CITY           SKY/WX    TMP DP  RH WIND       PRES   REMARKS
DAVENPORT      FAIR      54  28  36 E12       30.41F
6HR MIN TEMP:  43; 6HR MAX TEMP:  54;

IOWA CITY      FAIR      60  25  26 E13G21    30.37F
6HR MIN TEMP:  46; 6HR MAX TEMP:  60;

MT. PLEASANT * CLOUDY    55  27  33 E14       30.34F
MUSCATINE *    FAIR      61  25  25 SE14      30.36F
QUAD CITIES    FAIR      57  30  35 E10       30.38F
6HR MIN TEMP:  43; 6HR MAX TEMP:  57;

$$

IAZ062-063-075>077-085>089-095>099-211900-
   SOUTHEAST IOWA

CITY           SKY/WX    TMP DP  RH WIND       PRES   REMARKS
BURLINGTON     CLOUDY    58  25  28 E13       30.34F
6HR MIN TEMP:  46; 6HR MAX TEMP:  59;

FAIRFIELD *    CLOUDY    59  23  25 SE13G21   30.33F
FORT MADISON * CLOUDY    57  30  35 E13       30.34S
KEOKUK *       CLOUDY    59  30  33 E9G20     30.32S
OSKALOOSA *    PTSUNNY   58  23  25 SE14      30.33F
CENTERVILLE *    N/A     54  28  37 E10       30.32F
OTTUMWA        CLOUDY    58  25  28 SE22      30.31F
6HR MIN TEMP:  44; 6HR MAX TEMP:  59;

WASHINGTON *   MOSUNNY   63  25  23 SE16G22   30.36F
$$

ABBREVIATIONS USED IN REMARKS
   TC - TEMPERATURES IN CELSIUS
  WCI - WIND CHILL INDEX
   HX - HEAT INDEX
  VSB - VISIBILITY
$$





USA.gov is the U.S. government's official web portal to all federal, state and local government web resources and services.